Regional Weather Roundup
Issued by NWS

Home | Current Version | Previous Version | Text Only | Print | Product List | Glossary Off
Versions: 1 2 3 4 5 6 7 8 9 10 11 12 13 14 15 16 17 18 19 20 21 22 23 24 25 26 27 28 29 30 31 32 33 34 35 36 37 38 39 40 41 42 43 44 45 46 47 48 49 50

000
ASUS43 KIND 211659
RWRIN

WEATHER ROUNDUP FOR INDIANA
NATIONAL WEATHER SERVICE INDIANAPOLIS IN
1200 PM EST SUN JAN 21 2018

NOTE: "FAIR" INDICATES FEW OR NO CLOUDS BELOW 12,000 FEET WITH NO
SIGNIFICANT WEATHER AND/OR OBSTRUCTIONS TO VISIBILITY.

* - STATION DOES NOT REPORT WEATHER SUCH AS PRECIPITATION OR FOG.

+ - STATION NOT QUALITY CONTROLLED BY THE NATIONAL WEATHER SERVICE.
    USE DATA WITH CAUTION...ESPECIALLY DEWPOINT AND RELATIVE
    HUMIDITY OBSERVATIONS.

INZ001>003-010>013-019-020-211800-
NORTHWEST INDIANA

CITY           SKY/WX    TMP DP  RH WIND       PRES   REMARKS
GARY /AIRPORT/ CLOUDY    45  43  93 VRB5      29.99S FOG
KNOX *+        CLOUDY    37  37 100 S6        30.01S VSB<1/4 WCI  33
MONTICELLO +   FOG       41  40  95 CALM      30.01S VSB<1/4

$$

LMZ046-743>745-211800-
SOUTHERN LAKE MICHIGAN

STATION/POSITION TIME  TEMP    WIND        PRES    WAVE
                       AIR SEA DIR/SP/G            HT
                 (UTC) (F)     (DEG/KT/KT) (MB)    (FT)
BURNS HARBOR     1640   41     200/  8/ 12 1016.3F
MICHIGAN CITY    1630   40     130/  7/  8   N/A

$$

INZ004-005-014>016-021>024-211800-
NORTH CENTRAL INDIANA

CITY           SKY/WX    TMP DP  RH WIND       PRES   REMARKS
GOSHEN         FOG       41  40  96 S8        30.01F VSB 1/4
PERU/GRISSOM   FOG       44  44 100 S12       30.01F VSB 3/8
SOUTH BEND     FOG       41  40  96 S6        30.00F VSB 1

$$

INZ006>009-017-018-025>027-211800-
NORTHEAST INDIANA

CITY           SKY/WX    TMP DP  RH WIND       PRES   REMARKS
FORT WAYNE     FOG       44  43  96 S5        30.03F VSB 1/4
KENDALLVILLE + FOG       39  39 100 S5        30.02F VSB 1/4 WCI  36

$$

INZ028-029-035-036-043>045-051>053-211800-
WEST CENTRAL INDIANA

CITY           SKY/WX    TMP DP  RH WIND       PRES   REMARKS
LAFAYETTE      FOG       43  43 100 CALM      30.02S VSB 1/4
TERRE HAUTE    CLOUDY    48  46  93 S14       30.03F FOG

$$

INZ030>032-037>040-046>048-054>057-064-065-211800-
CENTRAL INDIANA

CITY           SKY/WX    TMP DP  RH WIND       PRES   REMARKS
GREENWOOD *+   CLOUDY    50  46  87 SW9       30.06F
INDIANAPOLIS   FOG       48  47  96 S7        30.05F VSB 1/2
-EAGLE CREEK   FOG       47  46  97 S5        30.04F VSB 1/4
MT COMFORT *+  CLOUDY    45  45 100 S7        30.05F
SHELBYVILLE    NOT AVBL

$$

INZ033-034-041-042-049-050-058-059-211800-
EAST CENTRAL INDIANA

CITY           SKY/WX    TMP DP  RH WIND       PRES   REMARKS
MUNCIE         CLOUDY    47  44  90 S8        30.04F
RICHMOND +     CLOUDY    43  43 100 SW10      30.08F

$$

INZ060-061-067>069-081>083-085>088-211800-
SOUTHWEST INDIANA

CITY           SKY/WX    TMP DP  RH WIND       PRES   REMARKS
EVANSVILLE     CLOUDY    51  47  86 S12       30.08F
HUNTINGBURG +  CLOUDY    51  45  79 S13       30.09F

$$

INZ062-063-066-070>080-084-089>092-211800-
SOUTH CENTRAL AND SOUTHEAST INDIANA

CITY           SKY/WX    TMP DP  RH WIND       PRES   REMARKS
BLOOMINGTON    CLOUDY    51  46  83 SW8       30.06S
SEYMOUR +      CLOUDY    54  46  76 SW10      30.08

$$





USA.gov is the U.S. government's official web portal to all federal, state and local government web resources and services.